Flag Weather past 2 weeks in Guayaquil, Ecuador

Now
79 °F

Passing clouds.


Feels Like: 81 °F
Forecast: 72 / 91 °F
Wind: 14 mph from Southwest

Location: Guayaquil / Simon Bolivar

Current Time: Nov 26, 2014 at 8:58:58 PM

Latest Report: Nov 26, 2014 at 8:00 PM


Visibility: N/A

Pressure: 29.89 "Hg

Humidity: 65%

Dew point: 66 °F

Location of GuayaquilLocation

Historic Weather in Guayaquil — Graph

°F

Guayaquil temperature yesterday

Maximum temperature yesterday: 90 °F (at 2:00 PM)
Minimum temperature yesterday: 73 °F (at 1:00 AM)
Average temperature yesterday: 80 °F

Past Weeks' High & Low Weather Summary

 TemperatureHumidityPressure
High90 °F (Nov 20, 1:00 PM)88% (Nov 15, 5:00 AM)29.95 "Hg (Nov 15, 5:00 AM)
Low72 °F (Nov 12, 6:00 AM)46% (Nov 25, 11:00 AM)29.71 "Hg (Nov 23, 5:00 PM)
Average78 °F70%29.87 "Hg
* Reported Nov 11 8:00 PM — Nov 26 8:00 PM, Guayaquil, Weather by CustomWeather, © 2014

Note: Actual official high and low records may vary slightly from our data, if they occured in-between our weather recording intervals... More about our weather records

Advertising

Guayaquil weather history for previous 24 hours

 ConditionsComfort  
Time TempWeatherWind HumidityBarometerVisibility
8:00 PM
Nov 26
79 °FPassing clouds.14 mph65%29.89 "HgN/A
7:00 PM79 °FPassing clouds.10 mph65%29.86 "HgN/A
6:00 PM81 °FPartly sunny.9 mph62%29.83 "HgN/A
5:00 PM82 °FPartly sunny.7 mph62%29.83 "HgN/A
4:00 PM82 °FPartly sunny.6 mph62%29.80 "HgN/A
3:00 PM82 °FPartly sunny.7 mph58%29.83 "HgN/A
2:00 PM84 °FBroken clouds.8 mph55%29.83 "HgN/A
1:00 PM82 °FScattered clouds.7 mph58%29.86 "HgN/A
11:00 AM81 °FPartly sunny.7 mph62%29.92 "HgN/A
10:00 AM79 °FBroken clouds.7 mph65%29.92 "HgN/A
9:00 AM77 °FMore clouds than sun.8 mph69%29.92 "HgN/A
8:00 AM75 °FMore clouds than sun.6 mph74%29.92 "HgN/A
7:00 AM73 °FOvercast.8 mph78%29.89 "HgN/A
6:00 AM73 °FOvercast.9 mph78%29.89 "HgN/A
5:00 AM73 °FOvercast.10 mph78%29.86 "HgN/A
4:00 AM73 °FOvercast.7 mph78%29.86 "HgN/A
3:00 AM73 °FOvercast.8 mph78%29.86 "HgN/A
2:00 AM75 °FPassing clouds.7 mph69%29.86 "HgN/A
1:00 AM75 °FPassing clouds.7 mph69%29.89 "HgN/A
12:00 AM75 °FPassing clouds.10 mph69%29.89 "HgN/A
11:00 PM
Nov 25
75 °FPassing clouds.13 mph65%29.92 "HgN/A
10:00 PM77 °FPassing clouds.13 mph61%29.89 "HgN/A
9:00 PM77 °FPassing clouds.13 mph65%29.89 "HgN/A
8:00 PM79 °FPassing clouds.16 mph61%29.86 "HgN/A
Weather by CustomWeather, © 2014

See weather overviewHow to use our weather pages